This demonstration page uses our WeatherBlox Daily Observations layout. Learn more.

Left ArrowRight Arrow

Hourly Observations for February 13, 2020

Temp ( °F °C ) Dew Point ( °F °C ) Humidity (%) Winds ( mph kmh ) Pressure ( in mb ) Visibility ( mi km ) Precip ( " mm )
12:53 am 00:53 Cloudy 8 -13.3 3 -16.1 80 80 ENE 13 20 30.27 1025 10 16 0.00 0.00
1:53 am 01:53 Clear 7 -13.9 3 -16.1 84 84 ENE 9 15 30.24 1024 10 16 0.00 0.00
2:53 am 02:53 Mostly Clear 7 -13.9 4 -15.6 87 87 ENE 13 20 30.22 1023 10 16 0.00 0.00
3:53 am 03:53 Mostly Cloudy 7 -13.9 3 -16.1 84 84 ENE 9 15 30.19 1023 10 16 0.00 0.00
4:53 am 04:53 Mostly Cloudy 7 -13.9 3 -16.1 84 84 ENE 8 13 30.19 1022 10 16 0.00 0.00
5:53 am 05:53 Clear 5 -15 2 -16.7 87 87 ENE 7 11 30.17 1022 10 16 0.00 0.00
6:53 am 06:53 Clear 5 -15 1 -17.2 83 83 E 7 11 30.16 1021 10 16 0.00 0.00
7:53 am 07:53 Sunny 5 -15 1 -17.2 83 83 E 6 9 30.14 1021 10 16 0.00 0.00
8:53 am 08:53 Sunny 6 -14.4 2 -16.7 83 83 E 8 13 30.13 1020 10 16 0.00 0.00
9:53 am 09:53 Sunny 10 -12.2 4 -15.6 76 76 E 3 6 30.10 1019 10 16 0.00 0.00
10:53 am 10:53 Sunny 13 -10.6 6 -14.4 74 74 Calm 30.06 1018 10 16 0.00 0.00
11:53 am 11:53 Sunny 17 -8.3 8 -13.3 68 68 ENE 5 7 30.00 1016 10 16 0.00 0.00
12:53 pm 12:53 Sunny 19 -7.2 10 -12.2 68 68 ENE 7 11 29.93 1014 10 16 0.00 0.00
1:53 pm 13:53 Sunny 22 -5.6 13 -10.6 68 68 E 10 17 29.87 1012 10 16 0.00 0.00
2:53 pm 14:53 Sunny 27 -2.8 18 -7.8 69 69 E 7 11 29.82 1010 10 16 0.00 0.00
3:53 pm 15:53 Sunny 30 -1.1 20 -6.7 66 66 E 7 11 29.78 1009 10 16 0.00 0.00
4:53 pm 16:53 Sunny 29 -1.7 21 -6.1 72 72 E 5 7 29.74 1007 10 16 0.00 0.00
5:53 pm 17:53 Clear 27 -2.8 20 -6.7 75 75 ENE 9 15 29.73 1007 10 16 0.00 0.00
6:53 pm 18:53 Clear 23 -5 19 -7.2 85 85 Calm 29.72 1006 10 16 0.00 0.00
7:53 pm 19:53 Clear 21 -6.1 17 -8.3 85 85 SSW 6 9 29.70 1006 10 16 0.00 0.00
8:53 pm 20:53 Mostly Clear 33 0.6 21 -6.1 61 61 SW 18 30 29.66 1004 10 16 0.00 0.00
9:53 pm 21:53 Clear 31 -0.6 21 -6.1 67 67 SW 15 24 29.65 1004 10 16 0.00 0.00
10:53 pm 22:53 Mostly Clear 32 0 21 -6.1 64 64 SW 20 31 29.64 1004 10 16 0.00 0.00
11:53 pm 23:53 Clear 30 -1.1 21 -6.1 69 69 WSW 16 26 29.64 1004 10 16 0.00 0.00

Powered by AerisWeather